SL-14 DEB, 47089

Orbit data source: Space-Track

SL-14 DEB, 47089 is space debris in LEO originally from a launch on Thu, 15 Aug 1991 UTC launched from the Plesetsk Missile And Space Complex (PKMTR). Debris objects in space refer to the collection of defunct objects orbiting the Earth. Examples of debris include non-operational satellites, rocket bodies, and fragments generated from explosions, collisions, or faulty payload assembly.

Loading next visibility...
Identifier
47089, 1991-056DP
Orbit
LEO
Country
Flag of CISCIS
Related business
Manufacturer
Unknown
Mission
Spacecraft
Bus & Motor
Unknown
Mass
Unknown
Launch date (UTC)
1991-08-15 (34 years ago)
Launch vehicle
Unknown
Launch site
Plesetsk Missile And Space Complex (PKMTR)
Object type
Payload
Rocket body
Debris
Shape & HBR
Unknown shape, 0.1 m
Radar Cross Section
Small (<0.1 m²)

Expand to show TLE details & history
Last TLE update: 2 days ago

TLE from 2 days ago
0 SL-14 DEB
1 47089U 91056DP  25340.93288980  .00000150  00000-0  23362-3 0  9995
2 47089  82.6013 226.9050 0187379  16.2784 344.4258 13.38368837248663
Epoch: 2025-12-06T22:23Z
TLE epoch observation values (Epoch: 2025-12-06T22:23:21.678Z)
Latitude
-0.00002°
Longitude
175.11115°
Altitude
983.114 km
Speed
7.426 km/s
True Right ascension
15h 07m 37s
True Declination
0° 00' 00"
Sunlit
Object was in daylight at epoch
Visualization orbit readout
Latitude
Unknown
Longitude
Unknown
Altitude
Unknown
Speed
Unknown
Apparent Right ascension
Unknown
Apparent Declination
Unknown
Sunlit
N/A
Visualization observer readout
Local Sidereal Time
06:05:13
Azimuth
Unknown
Elevation
Unknown
Doppler factor
Unknown
Orbital elements
Apogee altitude
1,252.933 km
Perigee altitude
972.213 km
Semi-major axis
7,490.71 km
Eccentricity
0.01874
Inclination
82.6013°
RAAN
226.905°
Arg. of periapsis
16.2784°
True anomaly
343.83602°
Mean anomaly
344.4258°
Eccentric anomaly
344.13226°
Mean motion
3.34779 °/min
Orbital period
107.53 mins
BSTAR
0.00023362
Loading maneuver chart data...
Computing Atmospheric mass density...
Loading historical data...
Loading historical data...
Loading historical data...
Loading historical data...
Loading historical data...
Loading historical data...
Loading historical data...

Documentation

Showing up to 5 results
|